Powrót do katalogu

JILIN-1 GAOFEN 03D-49

AktywnyNaukaSSO
NORAD 54694·PAYLOAD·🇨🇳 China
Ta nazwa satelity nie została jeszcze potwierdzona przez oficjalne źródła.

Wystrzelony Dec 9, 2022 z Yellow Sea Launch Area

Loading…

Następne Przeloty (najbliższe 24 godziny)

TLE

ŚwieżeSource: Space-Track

Epoka: Sep 14, 2026, 15:21 UTC

1 54694U 22167N   26257.64010888  .00009999  00000-0  25912-3 0  9991
2 54694  97.6878  71.9711 0005501 163.7856 196.3565 15.39234054209246

Śledź JILIN-1 GAOFEN 03D-49 w czasie rzeczywistym z AllMySat

Download on the App Store